Location: Bílinka
(49.3579°N, 14.3767°E)
Time: 01:31:22
(UTC+00:00)

Meteor 2-12 Rocket - Pass Details

Date: 28 January 2023
Orbit: 935 x 957 km, 82.5° (Epoch: 30 March)

Event Time Altitude Azimuth Distance (km) Brightness Sun altitude
Rises 18:21:41 0° 349° (N) 3,631 7.6 -24.4°
Reaches altitude 10° 18:24:11 10° 349° (N) 2,678 6.9 -24.8°
Maximum altitude 18:30:19 86° 263° (W) 952 4.4 -25.8°
Drops below altitude 10° 18:36:23 10° 174° (S) 2,646 6.7 -26.7°
Sets 18:38:51 0° 174° (S) 3,584 7.4 -27.1°
